Time,TemperatureF,DewpointF,PressureIn,WindDirection,WindDirectionDegrees,WindSpeedMPH,WindSpeedGustMPH,Humidity,HourlyPrecipIn,Conditions,Clouds,dailyrainin,SoftwareType,DateUTC
2013-03-03 00:12:00,34.5,26.0,29.54,NNE,18,0.0,5.0,72,0.00,,,0.00,weatherlink.com 1.10,2013-03-03 05:12:00,
2013-03-03 00:27:00,34.3,26.0,29.54,NNW,329,6.0,6.0,72,0.00,,,0.00,weatherlink.com 1.10,2013-03-03 05:27:00,
2013-03-03 00:42:00,34.3,26.0,29.54,NNW,343,3.0,5.0,73,0.00,,,0.00,weatherlink.com 1.10,2013-03-03 05:42:00,
2013-03-03 00:57:00,34.3,26.0,29.54,North,355,0.0,4.0,73,0.00,,,0.00,weatherlink.com 1.10,2013-03-03 05:57:00,
2013-03-03 01:13:00,34.2,27.0,29.54,WSW,254,1.0,6.0,74,0.00,,,0.00,weatherlink.com 1.10,2013-03-03 06:13:00,
2013-03-03 01:28:00,34.1,27.0,29.54,NNW,328,1.0,4.0,74,0.00,,,0.00,weatherlink.com 1.10,2013-03-03 06:28:00,
2013-03-03 01:43:00,34.0,27.0,29.54,North,355,1.0,3.0,75,0.00,,,0.00,weatherlink.com 1.10,2013-03-03 06:43:00,
2013-03-03 01:58:00,33.9,27.0,29.54,NNW,336,0.0,5.0,75,0.00,,,0.00,weatherlink.com 1.10,2013-03-03 06:58:00,
2013-03-03 02:13:00,33.7,27.0,29.53,NW,312,0.0,2.0,75,0.00,,,0.00,weatherlink.com 1.10,2013-03-03 07:13:00,
2013-03-03 02:28:00,33.6,26.0,29.53,West,275,0.0,3.0,75,0.00,,,0.00,weatherlink.com 1.10,2013-03-03 07:28:00,
2013-03-03 02:43:00,33.6,26.0,29.53,WSW,240,1.0,4.0,75,0.00,,,0.00,weatherlink.com 1.10,2013-03-03 07:43:00,
2013-03-03 02:58:00,33.5,26.0,29.53,West,264,0.0,3.0,75,0.00,,,0.00,weatherlink.com 1.10,2013-03-03 07:58:00,
2013-03-03 03:13:00,33.6,26.0,29.53,NNW,327,1.0,4.0,75,0.00,,,0.00,weatherlink.com 1.10,2013-03-03 08:13:00,
2013-03-03 03:28:00,33.6,26.0,29.53,NNW,332,4.0,4.0,75,0.00,,,0.00,weatherlink.com 1.10,2013-03-03 08:28:00,
2013-03-03 03:43:00,33.6,26.0,29.53,NNW,348,2.0,5.0,75,0.00,,,0.00,weatherlink.com 1.10,2013-03-03 08:43:00,
2013-03-03 03:58:00,33.5,27.0,29.53,NNE,22,0.0,4.0,76,0.00,,,0.00,weatherlink.com 1.10,2013-03-03 08:58:00,
2013-03-03 04:13:00,33.2,27.0,29.53,NNW,342,1.0,3.0,79,0.00,,,0.00,weatherlink.com 1.10,2013-03-03 09:13:00,
2013-03-03 04:28:00,32.9,27.0,29.53,NW,317,0.0,2.0,80,0.00,,,0.00,weatherlink.com 1.10,2013-03-03 09:28:00,
2013-03-03 04:43:00,32.5,27.0,29.53,NW,317,0.0,0.0,80,0.00,,,0.00,weatherlink.com 1.10,2013-03-03 09:43:00,
2013-03-03 04:58:00,32.3,27.0,29.53,NW,317,0.0,1.0,81,0.00,,,0.00,weatherlink.com 1.10,2013-03-03 09:58:00,
2013-03-03 05:13:00,32.1,28.0,29.53,NW,326,0.0,2.0,83,0.00,,,0.00,weatherlink.com 1.10,2013-03-03 10:13:00,
2013-03-03 05:28:00,31.9,27.0,29.53,NW,326,0.0,2.0,83,0.00,,,0.00,weatherlink.com 1.10,2013-03-03 10:28:00,
2013-03-03 05:44:00,31.8,28.0,29.53,NW,326,0.0,2.0,85,0.00,,,0.00,weatherlink.com 1.10,2013-03-03 10:44:00,
2013-03-03 05:58:00,31.7,27.0,29.53,WNW,302,0.0,3.0,84,0.00,,,0.00,weatherlink.com 1.10,2013-03-03 10:58:00,
2013-03-03 06:13:00,31.6,27.0,29.54,North,351,1.0,4.0,83,0.00,,,0.00,weatherlink.com 1.10,2013-03-03 11:13:00,
2013-03-03 06:28:00,31.7,27.0,29.54,NNW,328,2.0,3.0,83,0.00,,,0.00,weatherlink.com 1.10,2013-03-03 11:28:00,
2013-03-03 06:43:00,31.8,27.0,29.54,North,5,0.0,2.0,83,0.00,,,0.00,weatherlink.com 1.10,2013-03-03 11:43:00,
2013-03-03 06:58:00,31.9,27.0,29.54,North,355,0.0,3.0,83,0.00,,,0.00,weatherlink.com 1.10,2013-03-03 11:58:00,
2013-03-03 07:13:00,32.1,28.0,29.55,NNW,341,0.0,2.0,83,0.00,,,0.00,weatherlink.com 1.10,2013-03-03 12:13:00,
2013-03-03 07:28:00,32.2,27.0,29.55,SSE,166,2.0,4.0,82,0.00,,,0.00,weatherlink.com 1.10,2013-03-03 12:28:00,
2013-03-03 07:43:00,32.3,27.0,29.55,South,190,3.0,4.0,82,0.00,,,0.00,weatherlink.com 1.10,2013-03-03 12:43:00,
2013-03-03 07:58:00,32.6,28.0,29.55,West,267,0.0,3.0,82,0.00,,,0.00,weatherlink.com 1.10,2013-03-03 12:58:00,
2013-03-03 08:13:00,33.0,27.0,29.55,NNW,340,3.0,6.0,80,0.00,,,0.00,weatherlink.com 1.10,2013-03-03 13:13:00,
2013-03-03 08:28:00,33.2,29.0,29.54,North,355,3.0,4.0,83,0.00,,,0.00,weatherlink.com 1.10,2013-03-03 13:28:00,
2013-03-03 08:43:00,33.0,29.0,29.54,NNW,344,0.0,5.0,84,0.00,,,0.00,weatherlink.com 1.10,2013-03-03 13:43:00,
2013-03-03 08:58:00,32.9,29.0,29.54,NNW,346,1.0,5.0,85,0.00,,,0.00,weatherlink.com 1.10,2013-03-03 13:58:00,
2013-03-03 09:13:00,33.3,29.0,29.54,NW,305,1.0,6.0,84,0.00,,,0.00,weatherlink.com 1.10,2013-03-03 14:13:00,
2013-03-03 09:28:00,34.5,30.0,29.53,NW,308,1.0,5.0,82,0.00,,,0.00,weatherlink.com 1.10,2013-03-03 14:28:00,
2013-03-03 09:43:00,35.1,30.0,29.53,NNE,18,1.0,5.0,80,0.00,,,0.00,weatherlink.com 1.10,2013-03-03 14:43:00,
2013-03-03 09:58:00,36.1,30.0,29.53,NNW,346,1.0,5.0,79,0.00,,,0.00,weatherlink.com 1.10,2013-03-03 14:58:00,
2013-03-03 10:13:00,36.7,30.0,29.52,West,268,1.0,7.0,78,0.00,,,0.00,weatherlink.com 1.10,2013-03-03 15:13:00,
2013-03-03 10:28:00,37.4,31.0,29.52,North,5,4.0,7.0,78,0.00,,,0.00,weatherlink.com 1.10,2013-03-03 15:28:00,
2013-03-03 10:44:00,38.7,31.0,29.52,NNW,348,8.0,9.0,75,0.00,,,0.00,weatherlink.com 1.10,2013-03-03 15:44:00,
2013-03-03 10:59:00,38.8,31.0,29.52,North,5,3.0,7.0,74,0.00,,,0.00,weatherlink.com 1.10,2013-03-03 15:59:00,
2013-03-03 11:14:00,38.8,32.0,29.51,North,355,4.0,9.0,75,0.00,,,0.00,weatherlink.com 1.10,2013-03-03 16:14:00,
2013-03-03 11:29:00,39.5,32.0,29.51,North,355,2.0,7.0,75,0.00,,,0.00,weatherlink.com 1.10,2013-03-03 16:29:00,
2013-03-03 11:44:00,40.5,32.0,29.51,NNE,15,5.0,7.0,72,0.00,,,0.00,weatherlink.com 1.10,2013-03-03 16:44:00,
2013-03-03 11:59:00,41.4,33.0,29.50,NNE,30,2.0,7.0,71,0.00,,,0.00,weatherlink.com 1.10,2013-03-03 16:59:00,
2013-03-03 12:14:00,41.6,32.0,29.49,North,355,4.0,9.0,70,0.00,,,0.00,weatherlink.com 1.10,2013-03-03 17:14:00,
2013-03-03 12:29:00,41.0,32.0,29.49,NW,321,5.0,7.0,70,0.00,,,0.00,weatherlink.com 1.10,2013-03-03 17:29:00,
2013-03-03 12:44:00,40.6,32.0,29.48,North,350,2.0,8.0,70,0.00,,,0.00,weatherlink.com 1.10,2013-03-03 17:44:00,
2013-03-03 12:59:00,41.2,32.0,29.48,NNW,332,2.0,8.0,69,0.00,,,0.00,weatherlink.com 1.10,2013-03-03 17:59:00,
2013-03-03 13:14:00,42.5,31.0,29.47,ESE,107,1.0,6.0,65,0.00,,,0.00,weatherlink.com 1.10,2013-03-03 18:14:00,
2013-03-03 13:29:00,43.1,32.0,29.47,North,5,4.0,6.0,65,0.00,,,0.00,weatherlink.com 1.10,2013-03-03 18:29:00,
2013-03-03 13:44:00,42.7,32.0,29.47,NNE,13,4.0,6.0,66,0.00,,,0.00,weatherlink.com 1.10,2013-03-03 18:44:00,
2013-03-03 13:59:00,42.2,32.0,29.47,NNW,327,0.0,8.0,68,0.00,,,0.00,weatherlink.com 1.10,2013-03-03 18:59:00,
2013-03-03 14:14:00,42.0,33.0,29.47,North,355,1.0,7.0,70,0.00,,,0.00,weatherlink.com 1.10,2013-03-03 19:14:00,
2013-03-03 14:29:00,41.6,32.0,29.47,WNW,295,1.0,6.0,70,0.00,,,0.00,weatherlink.com 1.10,2013-03-03 19:29:00,
2013-03-03 14:44:00,41.4,32.0,29.47,SSE,147,1.0,6.0,69,0.00,,,0.00,weatherlink.com 1.10,2013-03-03 19:44:00,
2013-03-03 14:59:00,41.7,31.0,29.46,SW,225,3.0,5.0,67,0.00,,,0.00,weatherlink.com 1.10,2013-03-03 19:59:00,
2013-03-03 15:14:00,42.0,31.0,29.46,ESE,108,0.0,4.0,66,0.00,,,0.00,weatherlink.com 1.10,2013-03-03 20:14:00,
2013-03-03 15:29:00,42.2,31.0,29.46,East,96,1.0,6.0,65,0.00,,,0.00,weatherlink.com 1.10,2013-03-03 20:29:00,
2013-03-03 15:44:00,41.8,31.0,29.46,South,169,1.0,4.0,65,0.00,,,0.00,weatherlink.com 1.10,2013-03-03 20:44:00,
2013-03-03 15:59:00,41.3,30.0,29.46,South,175,3.0,4.0,65,0.00,,,0.00,weatherlink.com 1.10,2013-03-03 20:59:00,
2013-03-03 16:14:00,41.2,31.0,29.46,South,170,0.0,3.0,67,0.00,,,0.00,weatherlink.com 1.10,2013-03-03 21:14:00,
2013-03-03 16:29:00,41.1,30.0,29.46,West,274,1.0,3.0,66,0.00,,,0.00,weatherlink.com 1.10,2013-03-03 21:29:00,
2013-03-03 16:44:00,40.7,29.0,29.46,NNE,33,1.0,8.0,64,0.00,,,0.00,weatherlink.com 1.10,2013-03-03 21:44:00,
2013-03-03 16:59:00,40.4,29.0,29.47,WNW,292,1.0,10.0,65,0.00,,,0.00,weatherlink.com 1.10,2013-03-03 21:59:00,
2013-03-03 17:14:00,40.1,29.0,29.47,NNW,342,1.0,7.0,65,0.00,,,0.00,weatherlink.com 1.10,2013-03-03 22:14:00,
2013-03-03 17:29:00,39.7,29.0,29.47,NNW,339,0.0,6.0,65,0.00,,,0.00,weatherlink.com 1.10,2013-03-03 22:29:00,
2013-03-03 17:44:00,39.1,29.0,29.48,NNW,338,2.0,7.0,66,0.00,,,0.00,weatherlink.com 1.10,2013-03-03 22:44:00,
2013-03-03 18:14:00,38.1,28.0,29.49,North,355,1.0,3.0,68,0.00,,,0.00,weatherlink.com 1.10,2013-03-03 23:14:00,
2013-03-03 18:29:00,37.8,28.0,29.49,North,355,0.0,3.0,69,0.00,,,0.00,weatherlink.com 1.10,2013-03-03 23:29:00,
2013-03-03 18:44:00,37.5,28.0,29.49,West,281,0.0,3.0,69,0.00,,,0.00,weatherlink.com 1.10,2013-03-03 23:44:00,
2013-03-03 18:59:00,37.4,28.0,29.49,North,5,0.0,5.0,70,0.00,,,0.00,weatherlink.com 1.10,2013-03-03 23:59:00,
2013-03-03 19:14:00,37.2,28.0,29.49,NW,314,0.0,5.0,70,0.00,,,0.00,weatherlink.com 1.10,2013-03-04 00:14:00,
2013-03-03 19:29:00,37.1,28.0,29.49,North,355,1.0,4.0,71,0.00,,,0.00,weatherlink.com 1.10,2013-03-04 00:29:00,
2013-03-03 19:44:00,37.3,28.0,29.49,North,360,2.0,12.0,70,0.00,,,0.00,weatherlink.com 1.10,2013-03-04 00:44:00,
2013-03-03 20:00:00,37.3,29.0,29.50,North,350,6.0,12.0,71,0.00,,,0.00,weatherlink.com 1.10,2013-03-04 01:00:00,
2013-03-03 20:14:00,37.1,28.0,29.50,WNW,303,3.0,6.0,71,0.00,,,0.00,weatherlink.com 1.10,2013-03-04 01:14:00,
2013-03-03 20:29:00,36.9,28.0,29.50,NNE,24,9.0,11.0,71,0.00,,,0.00,weatherlink.com 1.10,2013-03-04 01:29:00,
2013-03-03 20:45:00,36.6,28.0,29.51,NNW,342,2.0,9.0,72,0.00,,,0.00,weatherlink.com 1.10,2013-03-04 01:45:00,
2013-03-03 21:00:00,36.4,28.0,29.51,West,267,2.0,10.0,72,0.00,,,0.00,weatherlink.com 1.10,2013-03-04 02:00:00,
2013-03-03 21:15:00,36.2,28.0,29.51,North,5,0.0,8.0,71,0.00,,,0.00,weatherlink.com 1.10,2013-03-04 02:15:00,
2013-03-03 21:30:00,36.0,27.0,29.50,NW,324,1.0,9.0,71,0.00,,,0.00,weatherlink.com 1.10,2013-03-04 02:30:00,
2013-03-03 21:45:00,35.9,27.0,29.50,NNW,333,0.0,6.0,71,0.00,,,0.00,weatherlink.com 1.10,2013-03-04 02:45:00,
2013-03-03 22:00:00,35.5,27.0,29.50,North,360,1.0,8.0,70,0.00,,,0.00,weatherlink.com 1.10,2013-03-04 03:00:00,
2013-03-03 22:15:00,35.5,27.0,29.50,West,278,10.0,11.0,70,0.00,,,0.00,weatherlink.com 1.10,2013-03-04 03:15:00,
2013-03-03 22:30:00,35.3,26.0,29.50,North,360,1.0,10.0,70,0.00,,,0.00,weatherlink.com 1.10,2013-03-04 03:30:00,
2013-03-03 22:45:00,35.2,26.0,29.50,WNW,284,1.0,7.0,70,0.00,,,0.00,weatherlink.com 1.10,2013-03-04 03:45:00,
2013-03-03 23:00:00,35.0,26.0,29.50,NNW,327,0.0,5.0,71,0.00,,,0.00,weatherlink.com 1.10,2013-03-04 04:00:00,
2013-03-03 23:15:00,34.7,27.0,29.50,NE,34,2.0,4.0,73,0.00,,,0.00,weatherlink.com 1.10,2013-03-04 04:15:00,
2013-03-03 23:30:00,34.4,27.0,29.50,North,5,0.0,4.0,73,0.00,,,0.00,weatherlink.com 1.10,2013-03-04 04:30:00,
2013-03-03 23:45:00,34.3,27.0,29.50,NE,44,1.0,3.0,74,0.00,,,0.00,weatherlink.com 1.10,2013-03-04 04:45:00,